950  
ASUS43 KEAX 191010  
RWREAX  
 
WEATHER ROUNDUP FOR EASTERN KANSAS AND NORTHWEST MISSOURI  
NATIONAL WEATHER SERVICE KANSAS CITY/PLEASANT HILL MO  
500 AM CDT FRI JUL 19 2019  
 
KSZ040-057-103>105-MOZ028-029-037-043-191100-   
..KANSAS CITY METROPOLITAN AREA
 
 
 
CITY SKY/WX TMP DP RH WIND PRES REMARKS
 
K.C. INTL CLEAR 80 71 74 SW15G23 29.82S  
K.C. DOWNTOWN CLEAR 82 70 66 S12 29.82R  
LEES SUMMIT LGT RAIN 80 70 71 SW15 29.85R  
OLATHE - IXD CLEAR 79 70 74 S14 29.85S  
OLATHE - OJC CLEAR 78 72 81 S12 29.84S  
LAWRENCE CLEAR 81 70 69 S7 29.82S  
 

 
 
MOZ001>008-011>017-020>025-030>033-038>040-044>046-053-054-191100-   
..NORTHERN AND CENTRAL MISSOURI
 
 
 
CITY SKY/WX TMP DP RH WIND PRES REMARKS
 
ST. JOSEPH CLEAR 82 70 66 S13 29.79S  
MOSBY SUNNY 81 70 69 CALM 29.82S  
WARRENSBURG CLEAR 77 70 78 S7 29.86R  
WHITEMAN AFB CLEAR 78 73 83 SW15 29.82S  
CLINTON PTCLDY 75 72 88 S8 29.88S  
SEDALIA CLEAR 76 71 85 SW15 29.88S  
WARSAW NOT AVBL  
CHILLICOTHE N/A 82 72 71 S9 29.82R  
KIRKSVILLE CLEAR 81 72 74 SW12 29.84R  
 

 
 
MOZ041-047>049-056>058-063>065-088>090-097-191100-   
..EASTERN AND SOUTHERN MISSOURI
 
 
 
CITY SKY/WX TMP DP RH WIND PRES REMARKS
 
ST. LOUIS INTL CLEAR 81 73 76 SW9 29.90S  
SPIRIT OF STL CLEAR 80 74 81 S8 29.88S  
COLUMBIA CLEAR 77 70 79 S8 29.89R  
ROLLA CLEAR 74 71 91 SW9 29.94R  
OSAGE BEACH CLEAR 77 72 84 S7 29.92R  
SPRINGFIELD CLEAR 74 70 87 S8 29.93S  
BRANSON CLEAR 73 70 88 CALM 29.97S  
JOPLIN CLEAR 77 71 82 S13 29.91R  
WEST PLAINS CLEAR 75 72 90 SW6 29.98S  
 

 
 
IAZ060-094-KSZ022-034>040-054-083-096-NEZ052-066-093-191100-    
..KANSAS...SOUTHEAST NEBRASKA AND IOWA
 
 
 
CITY SKY/WX TMP DP RH WIND PRES REMARKS
 
TOPEKA CLEAR 82 71 69 S10 29.80S  
MANHATTAN CLEAR 81 69 67 SW10 29.78S  
EMPORIA CLEAR 77 71 82 S15 29.83S  
CHANUTE CLEAR 80 71 74 S14G23 29.87S  
WICHITA CLEAR 79 68 69 S14 29.83S  
OMAHA CLEAR 82 73 74 S10 29.71S  
LINCOLN CLEAR 81 70 69 S12 29.72S  
FALLS CITY CLEAR 81 69 67 S12 29.76S  
DES MOINES CLEAR 82 72 71 SW10 29.74R  
 

 
 
 
 
CLICK HERE TO GO TO PREVIOUS BULLETINS.

The Nexlab MO Page
The Nexlab KS Page Main Text Page